Date,TemperatureHighF,TemperatureAvgF,TemperatureLowF,DewpointHighF,DewpointAvgF,DewpointLowF,HumidityHigh,HumidityAvg,HumidityLow,PressureMaxIn,PressureMinIn,WindSpeedMaxMPH,WindSpeedAvgMPH,GustSpeedMaxMPH,PrecipitationSumIn
2013-6-4,75.3,72.9,69.7,72.8,69.0,63.3,99,88,79,30.12,29.92,13,9,24,0.02
2013-6-5,75.5,73.2,70.2,65.6,59.6,54.2,77,63,49,30.15,30.07,9,7,18,0.00
2013-6-6,79.9,75.6,72.7,73.3,67.6,63.1,95,77,67,30.09,29.91,13,8,29,0.11
2013-6-7,84.0,77.5,73.7,77.6,74.2,71.9,98,90,76,29.92,29.63,15,11,39,0.95
2013-6-8,85.1,79.7,75.7,78.2,75.1,72.7,94,86,75,30.11,29.87,11,7,24,0.00
2013-6-9,85.4,78.5,75.3,77.2,74.8,63.2,94,89,66,30.19,30.12,15,5,24,0.00
2013-6-10,82.7,79.2,74.8,80.5,73.5,63.6,100,83,57,30.15,30.02,17,10,27,49.50
2013-6-11,83.4,79.2,76.2,74.7,73.0,64.1,89,82,62,30.03,29.87,16,12,31,0.00
2013-6-12,85.6,81.6,78.5,75.1,71.6,66.8,89,72,54,29.97,29.87,13,8,21,0.00
2013-6-13,84.0,80.2,70.9,76.9,74.7,67.0,92,83,69,29.89,29.61,22,12,38,0.08
2013-6-14,78.3,70.0,63.9,69.4,61.0,42.8,88,73,43,30.02,29.62,21,12,30,0.09
2013-6-15,83.3,72.9,61.4,64.1,59.7,51.1,83,64,44,30.12,30.01,21,7,24,0.00
2013-6-16,82.1,76.3,73.3,69.8,63.9,53.7,80,66,49,30.16,30.06,24,14,30,0.00
2013-6-17,81.0,77.5,75.1,77.9,69.9,61.5,97,78,60,30.08,30.00,26,13,33,0.00
2013-6-18,79.7,76.9,73.6,79.1,71.2,61.9,100,83,57,30.02,29.82,32,10,39,0.07
2013-6-19,77.9,72.3,67.7,69.8,63.7,53.2,91,75,57,30.10,29.83,30,14,37,0.09
2013-6-20,73.5,70.8,69.0,67.1,61.5,57.2,89,73,63,30.23,30.10,20,13,27,0.00
2013-6-21,73.5,73.1,72.9,71.4,71.2,71.1,94,94,93,30.22,30.21,9,7,14,0.00
2013-6-22,78.6,75.3,72.6,74.7,72.6,71.0,95,91,85,30.24,30.18,8,4,16,0.05
2013-6-23,81.9,77.7,75.6,75.9,73.9,71.8,93,88,79,30.26,30.18,10,5,18,0.00
2013-6-24,82.7,79.3,76.1,76.2,73.6,63.8,94,83,56,30.25,30.13,24,9,30,0.00
2013-6-25,83.0,79.6,77.1,77.8,75.5,74.1,93,88,81,30.16,30.02,15,10,25,0.00
2013-6-26,85.6,79.8,77.0,78.3,74.4,63.7,93,84,54,30.06,29.95,24,11,30,0.00
2013-6-27,84.4,79.9,76.4,78.1,75.2,71.8,92,86,72,29.96,29.80,16,12,30,0.00
2013-6-28,82.3,78.4,73.2,78.5,76.1,71.7,98,93,85,29.83,29.66,17,13,31,1.26
2013-6-29,83.2,79.5,76.3,77.6,75.7,72.1,95,89,78,29.73,29.66,17,13,30,0.22
2013-6-30,79.0,77.1,72.7,74.8,73.0,63.1,92,87,59,29.97,29.82,15,8,30,0.80
2013-7-1,80.1,76.4,73.0,75.5,72.8,69.9,93,89,85,30.12,29.94,13,7,27,0.52
2013-7-2,84.1,77.2,73.1,77.7,73.5,64.9,93,88,67,30.23,30.12,11,6,28,0.12
2013-7-3,83.7,80.4,78.1,79.3,75.4,72.4,100,85,75,30.32,30.27,10,6,16,0.00
2013-7-4,83.8,80.3,77.8,76.3,71.8,62.9,90,76,53,30.34,30.27,10,6,15,0.00
2013-7-5,85.7,81.3,77.5,76.9,74.9,72.4,91,81,72,30.33,30.24,9,5,19,0.00
2013-7-6,85.5,81.0,76.6,76.4,73.9,62.6,91,80,57,30.29,30.19,10,4,16,0.00
2013-7-7,86.3,80.9,78.6,74.6,68.2,60.3,84,66,52,30.23,30.12,17,10,20,0.00
2013-7-8,86.5,81.0,78.2,75.0,73.5,71.6,85,78,64,30.21,30.14,12,8,22,0.00
2013-7-9,86.3,81.1,78.4,77.9,75.3,73.3,89,83,71,30.22,30.13,10,6,20,0.00
2013-7-10,86.1,80.8,77.3,76.2,75.0,64.1,90,83,73,30.17,30.02,19,7,23,0.00
2013-7-11,85.4,80.0,75.6,77.4,72.0,62.5,95,78,56,30.05,29.94,21,12,26,0.03
2013-7-12,82.4,77.1,72.2,76.2,72.5,61.8,96,86,65,30.03,29.92,15,7,31,0.77
2013-7-13,84.5,79.6,74.4,77.4,71.4,61.2,96,78,52,30.27,30.02,12,6,19,0.01
2013-7-14,83.8,80.4,77.7,78.3,76.2,74.5,93,87,80,30.32,30.24,9,6,13,0.00
2013-7-15,84.2,80.0,76.5,77.7,75.9,74.1,94,88,78,30.32,30.25,8,3,12,0.00
2013-7-16,88.3,82.7,76.6,79.4,76.5,72.7,93,82,71,30.26,30.16,17,7,33,0.03
2013-7-17,85.5,82.0,78.1,77.4,75.4,72.6,91,81,68,30.20,30.11,9,5,17,0.01
2013-7-18,87.5,81.5,76.7,75.5,72.9,69.7,90,76,58,30.16,30.09,7,3,11,0.00
2013-7-19,86.1,83.1,80.2,78.2,76.4,73.9,88,81,70,30.14,30.04,15,9,26,0.00
2013-7-20,86.0,81.6,79.6,77.4,72.2,63.1,88,74,51,30.08,29.98,30,14,37,0.00
2013-7-21,86.3,81.6,78.9,78.1,73.2,64.0,89,76,59,30.04,29.96,25,10,32,0.00
2013-7-22,85.0,80.2,78.3,77.5,72.8,65.7,92,79,60,30.00,29.85,17,10,25,0.00
2013-7-23,82.9,80.3,78.9,76.4,73.3,64.5,91,80,59,29.83,29.74,25,16,31,0.00
2013-7-24,90.0,82.5,78.3,79.8,76.0,64.0,95,82,50,29.84,29.74,18,8,21,0.00
2013-7-25,80.8,76.9,71.8,76.7,70.2,61.1,94,81,60,29.99,29.80,29,10,32,0.49
2013-7-26,76.3,73.3,70.0,70.3,68.5,57.8,92,85,58,30.11,29.99,16,8,24,0.00
2013-7-27,81.5,78.4,74.7,74.7,70.6,66.6,94,78,62,30.04,29.99,10,5,18,0.00
2013-7-28,85.7,78.5,73.1,78.1,75.1,71.4,97,90,68,30.05,29.94,11,6,21,0.41
2013-7-29,84.8,80.0,77.6,77.9,76.0,64.7,93,88,78,30.16,30.03,15,5,20,0.01
2013-7-30,81.8,77.5,73.7,75.7,70.4,58.6,94,80,52,30.22,30.15,8,5,14,0.00
2013-7-31,79.9,76.5,74.9,73.4,71.5,70.2,91,85,74,30.16,30.07,6,4,11,0.00
2013-8-1,79.0,76.1,72.3,75.8,70.5,62.1,97,84,62,30.07,29.90,21,7,25,0.35
2013-8-2,82.8,79.4,78.5,77.5,75.2,65.9,91,87,64,30.05,29.90,24,15,29,0.00
2013-8-3,85.2,81.2,79.2,78.8,77.0,75.4,92,87,75,30.05,29.94,14,9,24,0.00
2013-8-4,80.9,77.1,73.4,75.2,64.6,53.7,90,67,45,30.01,29.92,24,12,29,0.01
2013-8-5,78.8,75.5,72.8,67.9,60.3,50.2,81,60,41,30.09,30.00,9,6,14,0.00
2013-8-6,82.7,77.2,72.5,72.2,69.6,65.8,87,78,63,30.10,30.03,9,4,13,0.00
2013-8-7,84.1,80.9,75.5,73.3,71.9,69.5,87,74,69,30.13,30.08,7,4,11,0.00
2013-8-8,83.4,79.1,76.8,77.8,75.1,68.2,94,88,68,30.11,30.04,11,5,16,0.00
2013-8-9,85.5,81.4,79.8,78.6,70.2,64.4,89,69,53,30.09,30.02,27,15,32,0.00
2013-8-10,87.6,81.4,73.8,80.1,73.4,66.6,95,78,60,30.17,30.02,24,14,33,0.39
2013-8-11,90.1,80.8,75.3,80.2,73.6,65.9,94,80,56,30.13,30.04,11,4,13,0.00
2013-8-12,88.3,82.7,77.1,81.5,76.9,67.1,93,84,51,30.08,29.96,14,6,21,0.02
2013-8-13,85.6,81.8,78.6,80.5,77.8,69.2,94,88,65,29.97,29.81,24,9,35,0.06
2013-8-14,81.4,80.4,76.9,79.1,77.3,74.1,94,90,86,29.82,29.78,18,10,37,0.16
2013-8-17,79.2,77.0,74.7,75.0,69.8,65.1,95,80,63,30.17,30.10,9,5,16,0.22
2013-8-18,83.6,80.5,74.4,76.5,75.1,72.1,93,84,76,30.18,30.13,8,4,15,0.00
2013-8-19,78.6,75.2,73.6,73.0,71.3,69.7,93,88,80,30.18,30.11,9,5,15,0.00
2013-8-20,78.5,75.9,73.9,74.0,72.3,70.1,93,89,78,30.19,30.10,9,5,16,0.00
2013-8-21,81.4,77.7,74.9,76.0,73.3,71.5,93,87,80,30.25,30.14,7,4,13,0.00
2013-8-22,83.6,80.7,77.1,78.2,72.7,62.4,93,77,57,30.16,30.01,18,7,21,0.00
2013-8-23,85.1,79.0,74.2,77.6,73.9,70.7,93,85,72,30.01,29.93,15,6,27,0.07
2013-8-24,79.8,76.3,71.7,73.1,68.3,62.1,94,77,65,30.26,30.00,16,12,30,0.18
2013-8-25,77.9,74.7,72.2,67.4,62.4,53.6,75,66,50,30.33,30.25,16,12,30,0.00
2013-8-26,77.2,73.7,70.6,65.9,57.8,52.7,75,58,49,30.28,30.12,11,6,16,0.00
2013-8-27,84.0,77.6,72.6,70.4,61.8,51.2,79,59,41,30.12,29.98,21,10,26,0.00
2013-8-28,84.3,78.3,76.2,76.7,68.1,60.3,94,72,56,30.00,29.89,20,11,23,0.00
2013-8-29,78.6,78.3,77.6,68.3,67.0,65.0,71,68,64,29.89,29.80,21,16,26,0.00
2013-8-30,79.1,76.3,73.3,71.6,70.6,69.1,90,83,76,30.04,29.96,10,7,20,0.00
2013-9-3,78.6,73.5,70.1,72.3,68.8,63.6,98,86,67,29.95,29.84,24,6,34,2.05
2013-9-4,80.7,77.2,75.3,73.0,62.9,58.7,81,62,51,30.08,29.94,9,6,11,0.00
2013-11-11,57.4,54.9,53.0,48.4,45.8,43.1,82,72,60,30.27,30.17,7,3,14,0.00
2013-11-12,60.4,52.3,41.8,48.6,42.5,33.6,82,69,41,30.30,30.05,25,12,42,0.00
2013-11-13,44.1,42.2,40.0,35.6,29.7,25.0,81,61,49,30.50,30.30,27,20,43,0.00
2013-11-14,51.8,46.8,41.7,41.9,33.3,26.9,73,60,44,30.48,30.39,12,4,17,0.00
2013-11-15,63.3,56.6,49.6,58.3,49.1,41.4,88,76,56,30.42,30.26,7,3,15,0.00
2013-11-16,67.5,62.8,58.0,62.0,58.6,54.2,90,86,75,30.29,30.20,12,4,21,0.53
2013-11-17,69.9,65.3,62.3,66.6,62.0,58.7,91,89,85,30.21,30.00,10,3,21,0.09
2013-11-18,70.9,66.3,59.7,66.2,61.7,48.7,90,85,66,30.00,29.78,12,7,21,0.02
2013-11-19,60.0,53.2,49.2,48.9,39.8,36.7,71,60,52,30.27,29.88,17,13,31,0.00
2013-11-20,61.2,56.6,50.9,53.6,47.4,38.9,76,71,63,30.40,30.26,19,12,30,0.00
2013-11-21,64.3,59.9,56.5,56.7,54.9,53.0,91,84,75,30.45,30.38,14,6,22,0.02
2013-11-22,67.5,62.0,55.8,61.0,57.0,52.6,92,84,72,30.41,30.10,9,4,18,0.00
2013-11-23,61.6,55.5,51.1,57.4,47.4,35.3,90,75,52,30.10,30.03,14,8,24,0.00
2013-11-24,51.7,38.6,34.1,42.7,22.3,12.4,75,52,39,30.52,30.06,24,18,38,0.00
2013-11-25,46.8,38.7,34.3,41.0,29.8,21.0,84,70,56,30.61,30.42,20,10,29,0.00
2013-11-26,67.4,61.1,46.8,64.4,54.4,41.0,90,79,68,30.42,29.68,19,11,36,0.60
2013-11-27,69.3,56.0,41.7,66.6,52.6,34.7,92,88,74,30.08,29.38,21,13,43,1.76
2013-11-28,42.0,39.4,37.0,35.2,30.3,25.4,79,70,60,30.53,30.08,28,11,33,0.00
2013-11-29,41.9,41.7,41.5,35.5,35.0,34.5,78,77,76,30.52,30.51,7,6,12,0.00
2013-12-13,45.5,45.1,44.6,37.3,36.8,35.7,75,73,69,30.39,30.37,4,2,7,0.00
2013-12-14,67.9,56.3,43.3,62.9,46.5,24.2,91,70,47,30.38,29.76,19,8,37,1.68
2013-12-15,62.0,52.1,46.5,59.3,47.7,37.6,92,85,68,30.06,29.70,12,8,21,0.39
2013-12-16,49.6,46.1,41.9,41.3,37.5,33.5,85,72,60,30.23,30.05,13,4,21,0.00
2013-12-17,60.3,53.4,43.5,49.3,44.5,34.4,84,72,62,30.23,29.94,14,6,26,0.00
2013-12-18,56.7,45.4,42.9,46.1,34.0,27.2,81,65,50,30.35,29.96,25,11,35,0.00
2013-12-19,54.3,48.5,39.6,49.1,39.4,27.9,86,71,56,30.40,30.31,6,2,13,0.00
2013-12-20,70.1,60.6,51.1,60.5,54.2,47.4,87,80,63,30.33,30.20,7,3,13,0.00
2013-12-21,74.0,68.0,63.1,65.6,62.1,57.7,89,82,68,30.23,30.15,8,4,16,0.00
2013-12-22,74.7,70.3,64.6,67.3,65.3,61.6,91,84,77,30.19,30.13,11,8,21,0.06
2013-12-23,76.1,71.1,55.5,68.4,66.1,52.3,90,84,77,30.16,30.03,17,9,31,0.14
2013-12-24,55.1,46.3,42.5,51.9,40.0,26.7,91,79,53,30.40,30.03,20,14,32,0.23
2013-12-25,49.3,41.4,36.6,43.7,33.3,25.9,85,73,56,30.53,30.39,17,10,27,0.00
2013-12-26,55.9,47.1,42.9,49.9,42.6,38.3,93,85,66,30.39,30.27,15,8,23,0.07
2013-12-27,51.5,48.3,44.8,40.6,35.2,30.4,81,61,48,30.45,30.34,13,9,24,0.00
2013-12-28,57.2,48.9,43.9,52.3,42.3,37.5,85,78,63,30.45,30.22,7,3,11,0.00
2013-12-29,70.1,62.7,57.4,65.0,57.2,52.2,91,82,76,30.22,29.74,17,10,32,0.27